TimeMDT,TemperatureF,Dew PointF,Humidity,Sea Level PressureIn,VisibilityMPH,Wind Direction,Wind SpeedMPH,Gust SpeedMPH,PrecipitationIn,Events,Conditions,WindDirDegrees,DateUTC
12:15 AM,42.8,19.4,39,29.94,10.0,Calm,Calm,-,N/A,,Mostly Cloudy,0,2013-04-30 06:15:00
12:35 AM,42.8,19.4,39,29.94,10.0,North,-9999.0,-,N/A,,Mostly Cloudy,0,2013-04-30 06:35:00
12:55 AM,42.8,19.4,39,29.94,10.0,North,5.8,-,N/A,,Mostly Cloudy,10,2013-04-30 06:55:00
1:15 AM,39.2,21.2,49,29.94,10.0,ENE,4.6,-,N/A,,Clear,60,2013-04-30 07:15:00
1:35 AM,39.2,21.2,49,29.94,10.0,Calm,Calm,-,N/A,,Clear,0,2013-04-30 07:35:00
1:55 AM,37.4,21.2,52,29.94,10.0,Calm,Calm,-,N/A,,Clear,0,2013-04-30 07:55:00
2:15 AM,39.2,21.2,49,29.94,10.0,Calm,Calm,-,N/A,,Clear,0,2013-04-30 08:15:00
2:35 AM,35.6,19.4,52,29.93,10.0,SE,3.5,-,N/A,,Clear,140,2013-04-30 08:35:00
2:55 AM,33.8,19.4,56,29.93,10.0,Calm,Calm,-,N/A,,Clear,0,2013-04-30 08:55:00
3:15 AM,35.6,21.2,56,29.93,10.0,Calm,Calm,-,N/A,,Clear,0,2013-04-30 09:15:00
3:35 AM,35.6,19.4,52,29.94,10.0,Calm,Calm,-,N/A,,Clear,0,2013-04-30 09:35:00
3:55 AM,33.8,21.2,60,29.93,10.0,Calm,Calm,-,N/A,,Clear,0,2013-04-30 09:55:00
4:15 AM,33.8,21.2,60,29.93,10.0,Calm,Calm,-,N/A,,Clear,0,2013-04-30 10:15:00
4:35 AM,33.8,21.2,60,29.93,10.0,Calm,Calm,-,N/A,,Clear,0,2013-04-30 10:35:00
4:55 AM,32.0,19.4,60,29.93,10.0,Calm,Calm,-,N/A,,Clear,0,2013-04-30 10:55:00
5:15 AM,32.0,19.4,60,29.93,10.0,East,3.5,-,N/A,,Clear,100,2013-04-30 11:15:00
5:35 AM,32.0,23.0,69,29.93,10.0,Calm,Calm,-,N/A,,Clear,0,2013-04-30 11:35:00
5:55 AM,30.2,21.2,69,29.94,10.0,Calm,Calm,-,N/A,,Clear,0,2013-04-30 11:55:00
6:15 AM,30.2,19.4,64,29.94,9.0,Calm,Calm,-,N/A,,Clear,0,2013-04-30 12:15:00
6:35 AM,28.4,19.4,69,29.95,10.0,Calm,Calm,-,N/A,,Clear,0,2013-04-30 12:35:00
6:55 AM,30.2,19.4,64,29.95,10.0,Calm,Calm,-,N/A,,Clear,0,2013-04-30 12:55:00
7:15 AM,32.0,21.2,64,29.96,10.0,Calm,Calm,-,N/A,,Clear,0,2013-04-30 13:15:00
7:35 AM,33.8,21.2,60,29.96,10.0,Calm,Calm,-,N/A,,Clear,0,2013-04-30 13:35:00
7:55 AM,35.6,23.0,60,29.96,10.0,Calm,Calm,-,N/A,,Mostly Cloudy,0,2013-04-30 13:55:00
8:15 AM,39.2,23.0,52,29.95,10.0,Calm,Calm,-,N/A,,Scattered Clouds,0,2013-04-30 14:15:00
8:35 AM,42.8,21.2,42,29.95,10.0,Calm,Calm,-,N/A,,Clear,0,2013-04-30 14:35:00
8:55 AM,44.6,23.0,43,29.95,10.0,NNE,3.5,-,N/A,,Clear,20,2013-04-30 14:55:00
9:15 AM,46.4,23.0,40,29.94,10.0,Calm,Calm,-,N/A,,Clear,0,2013-04-30 15:15:00
9:35 AM,50.0,24.8,37,29.94,10.0,Calm,Calm,-,N/A,,Partly Cloudy,0,2013-04-30 15:35:00
9:55 AM,53.6,26.6,35,29.93,10.0,East,3.5,-,N/A,,Mostly Cloudy,80,2013-04-30 15:55:00
10:15 AM,57.2,24.8,29,29.92,10.0,Calm,Calm,-,N/A,,Mostly Cloudy,0,2013-04-30 16:15:00
10:35 AM,60.8,24.8,25,29.91,10.0,SW,5.8,-,N/A,,Partly Cloudy,230,2013-04-30 16:35:00
10:55 AM,64.4,23.0,21,29.90,10.0,SW,18.4,24.2,N/A,,Scattered Clouds,220,2013-04-30 16:55:00
11:15 AM,66.2,23.0,19,29.89,10.0,West,24.2,31.1,N/A,,Scattered Clouds,260,2013-04-30 17:15:00
11:35 AM,66.2,21.2,18,29.89,10.0,WSW,23.0,34.5,N/A,,Clear,240,2013-04-30 17:35:00
11:55 AM,68.0,21.2,17,29.89,10.0,WSW,24.2,40.3,N/A,,Clear,250,2013-04-30 17:55:00
12:15 PM,68.0,21.2,17,29.88,10.0,West,21.9,39.1,N/A,,Clear,260,2013-04-30 18:15:00
12:35 PM,66.2,19.4,17,29.88,10.0,West,25.3,32.2,N/A,,Partly Cloudy,260,2013-04-30 18:35:00
12:55 PM,66.2,19.4,17,29.87,10.0,WSW,29.9,36.8,N/A,,Clear,250,2013-04-30 18:55:00
1:15 PM,66.2,19.4,17,29.86,10.0,West,24.2,32.2,N/A,,Partly Cloudy,260,2013-04-30 19:15:00
1:35 PM,68.0,19.4,16,29.85,10.0,WSW,29.9,38.0,N/A,,Partly Cloudy,240,2013-04-30 19:35:00
1:55 PM,69.8,17.6,14,29.86,10.0,WSW,26.5,43.7,N/A,,Partly Cloudy,240,2013-04-30 19:55:00
2:15 PM,69.8,17.6,14,29.85,10.0,WSW,23.0,29.9,N/A,,Partly Cloudy,240,2013-04-30 20:15:00
2:35 PM,68.0,17.6,15,29.86,10.0,West,26.5,34.5,N/A,,Partly Cloudy,260,2013-04-30 20:35:00
2:55 PM,69.8,15.8,13,29.87,10.0,WSW,24.2,36.8,N/A,,Partly Cloudy,250,2013-04-30 20:55:00
3:15 PM,69.8,15.8,13,29.86,10.0,WSW,23.0,33.4,N/A,,Clear,240,2013-04-30 21:15:00
3:35 PM,69.8,17.6,14,29.86,10.0,SW,21.9,31.1,N/A,,Clear,230,2013-04-30 21:35:00
3:55 PM,68.0,15.8,13,29.85,10.0,WSW,24.2,36.8,N/A,,Clear,250,2013-04-30 21:55:00
4:15 PM,68.0,15.8,13,29.85,10.0,WSW,20.7,38.0,N/A,,Partly Cloudy,250,2013-04-30 22:15:00
4:35 PM,68.0,15.8,13,29.84,10.0,SW,21.9,27.6,N/A,,Clear,230,2013-04-30 22:35:00
4:55 PM,66.2,15.8,14,29.84,10.0,SW,19.6,25.3,N/A,,Clear,230,2013-04-30 22:55:00
5:15 PM,66.2,15.8,14,29.84,10.0,WSW,24.2,33.4,N/A,,Clear,250,2013-04-30 23:15:00
5:35 PM,68.0,15.8,13,29.83,10.0,WSW,23.0,34.5,N/A,,Clear,250,2013-04-30 23:35:00
5:55 PM,68.0,15.8,13,29.83,10.0,WSW,24.2,36.8,N/A,,Clear,240,2013-04-30 23:55:00
6:15 PM,66.2,15.8,14,29.84,10.0,SW,16.1,27.6,N/A,,Partly Cloudy,220,2013-05-01 00:15:00
6:35 PM,64.4,14.0,14,29.83,10.0,WSW,18.4,26.5,N/A,,Clear,240,2013-05-01 00:35:00
6:55 PM,64.4,14.0,14,29.83,10.0,SW,19.6,28.8,N/A,,Clear,230,2013-05-01 00:55:00
7:15 PM,64.4,12.2,13,29.83,10.0,SW,17.3,29.9,N/A,,Clear,230,2013-05-01 01:15:00
7:35 PM,64.4,12.2,13,29.83,10.0,WSW,15.0,23.0,N/A,,Clear,240,2013-05-01 01:35:00
8:15 PM,62.6,10.4,13,29.84,10.0,WSW,10.4,18.4,N/A,,Clear,240,2013-05-01 02:15:00
8:55 PM,62.6,10.4,13,29.85,10.0,SW,10.4,-,N/A,,Clear,230,2013-05-01 02:55:00
9:15 PM,62.6,10.4,13,29.85,10.0,SW,12.7,21.9,N/A,,Clear,220,2013-05-01 03:15:00
9:35 PM,60.8,10.4,14,29.85,10.0,SSW,6.9,-,N/A,,Clear,210,2013-05-01 03:35:00
9:55 PM,57.2,10.4,16,29.85,10.0,SSW,8.1,-,N/A,,Clear,200,2013-05-01 03:55:00
10:15 PM,53.6,10.4,18,29.86,10.0,SE,5.8,-,N/A,,Partly Cloudy,140,2013-05-01 04:15:00
10:35 PM,53.6,12.2,19,29.85,10.0,ESE,3.5,-,N/A,,Scattered Clouds,120,2013-05-01 04:35:00
10:55 PM,53.6,12.2,19,29.85,10.0,Calm,Calm,-,N/A,,Partly Cloudy,0,2013-05-01 04:55:00
11:15 PM,57.2,14.0,18,29.84,10.0,South,15.0,18.4,N/A,,Partly Cloudy,180,2013-05-01 05:15:00
11:55 PM,57.2,12.2,17,29.85,10.0,WSW,4.6,-,N/A,,Clear,240,2013-05-01 05:55:00